RH
51 58 42 16 9 9 8 9 14 21 18 10 7 7 6 4 4 4 3 2 3 3 2 2 3 3 3 3 3 3 3 5
41 52 57 55 26 10 10 10 8 8 15 21 17 10 7 6 5 4 4 3 2 2 2 2 2 2 2 3 3 3 3 3
31 46 59 58 50 42 20 10 10 9 8 9 15 22 17 10 7 7 5 4 4 3 3 2 2 2 2 3 3 3 3 3
31 29 48 58 58 56 45 23 11 10 8 8 8 9 16 22 18 12 8 6 5 4 4 3 3 2 2 2 2 2 2 2
37 27 31 52 56 60 60 51 33 14 11 9 8 7 7 8 13 22 21 15 9 7 5 4 4 4 3 2 2 2 2 2
39 36 28 29 49 58 62 70 66 43 22 19 12 9 8 7 7 8 10 18 22 21 13 8 6 5 4 3 3 3 2 2
46 44 40 28 22 36 54 62 68 76 70 44 34 19 12 10 8 8 8 7 8 11 18 22 21 16 11 8 6 5 4 3
53 49 50 53 35 23 33 47 54 63 69 71 65 44 32 17 13 11 11 9 8 8 7 7 9 16 23 22 19 14 10 8
30 37 44 53 58 44 25 26 39 49 55 64 70 70 62 45 25 19 14 13 12 10 9 9 8 7 7 9 15 20 21 21
23 24 27 51 52 46 44 27 24 30 39 48 56 65 68 66 53 36 30 21 14 14 13 11 10 10 9 8 7 6 8 12
20 19 20 24 28 34 45 48 39 31 30 29 37 48 55 66 67 62 55 44 30 16 14 15 16 14 12 11 10 8 6 6
19 15 12 14 17 23 35 46 54 50 47 39 31 32 46 52 58 70 65 62 56 35 22 20 18 18 17 16 15 13 12 9
17 14 10 10 13 16 16 21 33 55 51 53 50 45 32 37 56 64 71 66 62 60 47 32 29 27 22 21 18 16 16 16
12 12 13 11 8 6 10 14 13 17 30 39 42 49 56 46 42 55 61 70 69 69 68 56 52 43 36 28 24 23 23 22
4 5 4 4 4 5 8 9 11 13 15 18 22 32 46 56 53 42 46 60 70 71 77 71 62 57 51 49 44 34 35 35
2 1 1 2 2 1 1 2 2 5 10 13 16 23 31 41 50 53 50 41 52 67 72 73 72 66 64 59 56 54 50 54
1 1 1 1 1 1 1 1 1 1 1 3 9 12 13 24 28 36 45 51 50 50 64 62 92 88 69 64 67 65 66 63
1 1 1 3 5 6 5 4 3 2 1 1 1 5 11 12 14 20 26 37 46 55 51 54 60 74 91 99 85 62 67 75
6 10 14 16 15 19 22 20 21 22 11 4 2 1 2 11 13 16 20 25 33 41 51 58 55 52 48 51 80 94 93 97
9 14 16 16 15 18 20 27 29 37 36 27 14 5 2 1 5 14 18 22 27 30 38 42 56 98 93 88 67 59 86 95
Wind_Speed
7 7 8 5 2 3 6 7 5 2 1 2 3 3 4 4 4 5 7 11 14 15 13 13 12 11 9 8 6 5 5 4
9 10 10 10 9 5 1 1 2 3 3 3 3 3 4 4 6 6 7 9 13 16 16 15 14 12 11 10 9 9 9 9
12 12 15 14 12 11 9 6 3 3 3 3 4 4 5 5 6 7 8 9 11 14 18 19 19 18 17 17 16 15 14 13
17 17 17 16 17 16 13 12 9 8 7 6 6 6 7 8 7 8 8 10 12 14 16 19 22 22 21 21 20 20 19 18
23 22 23 22 21 17 17 17 15 14 12 10 9 9 9 9 10 11 10 11 12 14 16 18 19 21 23 23 23 23 23 23
29 29 27 27 26 25 22 18 18 19 17 16 15 14 13 12 12 11 12 14 14 15 16 17 19 21 22 23 23 24 25 26
32 33 32 29 31 30 29 27 24 23 22 22 21 21 20 18 17 15 14 15 16 17 18 18 19 19 20 22 24 26 27 28
36 36 36 33 32 34 34 33 32 30 27 26 27 27 25 25 25 22 20 20 19 18 18 19 20 21 22 24 26 27 28 28
37 38 38 39 36 37 36 37 37 37 36 34 31 32 32 30 29 29 29 28 25 23 22 22 21 22 23 26 28 30 30 31
40 39 41 42 43 41 40 39 39 41 42 42 41 38 36 36 35 33 33 34 33 30 28 26 26 27 27 29 29 30 32 33
43 43 43 43 46 48 47 46 45 44 44 46 47 47 44 42 40 40 39 38 37 36 35 34 33 32 32 33 32 32 33 33
49 48 48 47 48 49 52 52 52 50 50 49 48 50 51 49 47 44 45 45 43 41 40 40 38 37 38 37 36 37 36 33
49 50 51 52 53 53 55 57 57 59 57 55 54 53 53 54 54 52 50 49 49 49 48 46 44 43 44 42 42 42 41 37
46 46 45 47 50 52 55 59 61 62 65 63 60 59 58 56 58 59 57 55 54 54 54 53 53 52 51 50 48 45 43 42
48 49 51 52 53 54 56 57 59 64 67 66 67 65 63 63 62 60 61 62 60 60 59 60 59 59 58 59 57 53 51 49
49 52 55 57 59 59 60 61 63 63 64 70 72 71 68 67 69 65 64 64 66 66 65 64 64 64 65 65 67 64 62 59
48 51 55 59 63 66 68 68 68 70 71 70 70 74 78 78 73 73 71 69 68 68 71 70 63 67 67 72 72 73 74 72
41 47 50 49 49 51 57 62 65 70 75 78 78 77 76 75 80 77 77 76 74 73 73 74 81 75 64 56 76 80 79 85
26 25 25 25 29 30 30 33 36 42 51 65 78 84 83 81 78 80 79 78 78 78 76 80 77 78 82 80 85 67 68 66
20 21 24 28 29 30 32 32 29 32 37 44 52 69 79 86 85 83 83 81 80 80 79 79 78 68 62 82 85 85 94 49
Wind_Direction
262 296 323 331 48 76 94 109 122 119 54 307 287 252 193 183 189 194 196 204 206 211 212 207 207 209 211 213 220 225 234 240
268 282 300 310 319 302 285 113 131 152 185 226 258 270 257 233 203 201 213 214 215 218 222 227 229 231 238 242 245 248 252 254
262 265 283 290 295 301 295 272 260 260 228 220 238 246 253 249 247 223 215 224 231 231 232 236 240 245 252 257 258 256 256 258
269 252 249 263 278 284 292 284 266 260 257 252 240 244 246 251 247 248 242 234 234 238 242 244 247 249 254 258 262 264 263 264
270 265 254 255 258 265 276 285 283 268 259 257 253 248 246 249 255 252 247 242 242 239 241 244 249 254 257 257 261 263 266 268
271 271 267 255 255 261 259 260 275 277 270 269 262 253 249 245 246 254 257 255 247 247 246 247 249 251 255 259 261 264 265 266
265 271 269 265 258 255 256 257 252 258 267 274 276 268 263 255 247 246 247 253 259 255 253 253 252 254 259 260 261 261 263 265
255 261 260 264 266 261 255 257 260 259 253 257 268 273 271 268 264 255 252 247 247 254 257 258 259 257 255 256 258 258 259 262
256 250 253 257 260 262 262 258 256 258 259 255 251 258 268 270 266 266 261 256 252 249 250 254 258 260 260 258 258 260 263 263
253 254 250 249 255 256 257 257 256 255 255 256 257 252 252 260 266 264 266 266 260 254 251 250 252 253 255 259 259 259 259 262
265 259 255 254 252 253 254 254 254 253 252 252 253 254 253 250 254 261 263 266 268 261 255 252 249 249 251 255 257 259 260 260
271 269 266 261 255 252 251 252 253 255 255 254 254 254 255 256 256 253 258 263 264 265 261 259 256 256 255 254 258 261 260 260
268 269 269 267 265 262 257 252 251 251 253 256 255 254 254 252 252 252 254 257 261 266 266 265 266 264 262 261 258 258 260 262
270 267 264 263 264 263 260 260 257 253 252 252 253 254 255 255 253 251 251 251 255 260 265 266 267 268 269 267 265 262 263 262
272 272 271 269 265 262 262 259 257 257 254 251 250 250 252 254 255 255 251 251 251 253 257 262 264 266 267 268 268 269 266 262
274 274 275 274 273 269 265 262 261 257 254 256 253 249 248 251 254 254 255 253 250 251 253 257 261 262 265 268 269 268 266 265
275 274 274 272 272 272 272 269 263 260 258 254 251 254 252 250 253 255 254 255 254 252 251 252 256 254 257 262 263 268 269 269
276 272 271 274 279 281 280 278 274 267 261 256 254 250 249 252 252 252 254 253 255 256 255 252 255 260 264 257 263 261 268 266
299 296 294 298 304 304 305 306 296 286 275 263 256 252 250 247 249 252 252 253 254 255 257 256 256 258 258 259 261 268 269 256
304 295 294 293 295 292 295 300 308 314 309 293 273 255 250 247 246 247 252 252 252 254 258 259 258 254 261 259 259 263 261 262